UB3APB-WY>APRS,TCPIP*,qAC,T2TROITSK:!4435.05N/04007.56E_000/000t045h98 Temp 23.4/7.0/7.4/8.1C Hum 98.0% (2026-05-03 10:24:11)
UB3APB-WY>APRS,TCPIP*,qAC,T2TROITSK:!4435.05N/04007.56E_000/000t044h98 Temp 23.4/6.8/7.3/8.1C Hum 98.0% (2026-05-03 10:29:18)
UB3APB-WY>APRS,TCPIP*,qAC,T2RUSSIA2:!4435.05N/04007.56E_000/000t044h99 Temp 23.5/6.9/7.5/8.2C Hum 99.0% (2026-05-03 11:05:01)
UB3APB-WY>APRS,TCPIP*,qAC,T2ADG:!4435.05N/04007.56E_000/000t044h99 Temp 23.5/6.9/7.5/8.2C Hum 99.0% (2026-05-03 11:10:07)
UB3APB-WY>APRS,TCPIP*,qAC,T2VENYOV:!4435.05N/04007.56E_000/000t044h99 Temp 23.4/6.9/7.6/8.8C Hum 99.0% (2026-05-03 11:15:12)
UB3APB-WY>APRS,TCPIP*,qAC,T2RUSSIA2:!4435.05N/04007.56E_000/000t047h99 Temp 23.6/8.1/8.6/8.6C Hum 99.0% (2026-05-03 13:02:15)
UB3APB-WY>APRS,TCPIP*,qAC,T2VENYOV:!4435.05N/04007.56E_000/000t047h98 Temp 23.7/8.4/9.1/8.7C Hum 98.0% (2026-05-03 14:03:24)
UB3APB-WY>APRS,TCPIP*,qAC,T2VENYOV:!4435.05N/04007.56E_000/000t047h98 Temp 23.6/8.6/9.0/8.7C Hum 98.0% (2026-05-03 14:08:31)
UB3APB-WY>APRS,TCPIP*,qAC,T2MOSCOW:!4435.05N/04007.56E_000/000t047h99 Temp 23.8/8.4/8.5/8.8C Hum 99.0% (2026-05-03 16:05:46)
UB3APB-WY>APRS,TCPIP*,qAC,T2VENYOV:!4435.05N/04007.56E_000/000t047h98 Temp 23.7/8.5/8.6/8.9C Hum 98.0% (2026-05-03 16:10:52)
UB3APB-WY>APRS,TCPIP*,qAC,T2RUSSIA2:!4435.05N/04007.56E_000/000t047h97 Temp 23.8/8.4/8.6/8.8C Hum 97.0% (2026-05-03 17:01:51)
UB3APB-WY>APRS,TCPIP*,qAC,T2VENYOV:!4435.05N/04007.56E_000/000t046h99 Temp 23.9/8.0/8.2/8.9C Hum 99.0% (2026-05-03 18:03:03)
UB3APB-WY>APRS,TCPIP*,qAC,T2VENYOV:!4435.05N/04007.56E_000/000t046h99 Temp 23.9/7.9/8.2/8.9C Hum 99.0% (2026-05-03 18:08:09)
UB3APB-WY>APRS,TCPIP*,qAC,T2MOSCOW:!4435.05N/04007.56E_000/000t046h99 Temp 23.9/7.7/7.9/8.9C Hum 99.0% (2026-05-03 20:05:28)
UB3APB-WY>APRS,TCPIP*,qAC,T2TROITSK:!4435.05N/04007.56E_000/000t046h99 Temp 23.8/7.8/7.9/8.8C Hum 99.0% (2026-05-03 20:10:33)
UB3APB-WY>APRS,TCPIP*,qAC,T2ADG:!4435.05N/04007.56E_000/000t046h99 Temp 23.8/7.9/8.0/8.9C Hum 99.0% (2026-05-03 20:15:40)
UB3APB-WY>APRS,TCPIP*,qAC,T2RUSSIA2:!4435.05N/04007.56E_000/000t046h99 Temp 23.9/7.8/7.9/8.9C Hum 99.0% (2026-05-03 20:20:46)
UB3APB-WY>APRS,TCPIP*,qAC,T2ADG:!4435.05N/04007.56E_000/000t046h99 Temp 23.9/7.8/8.0/8.9C Hum 99.0% (2026-05-03 20:25:52)
UB3APB-WY>APRS,TCPIP*,qAC,T2TROITSK:!4435.05N/04007.56E_000/000t046h99 Temp 23.8/7.7/7.9/8.9C Hum 99.0% (2026-05-03 20:30:58)
UB3APB-WY>APRS,TCPIP*,qAC,T2ADG:!4435.05N/04007.56E_000/000t046h99 Temp 23.8/7.7/7.9/8.9C Hum 99.0% (2026-05-03 20:36:04)
UB3APB-WY>APRS,TCPIP*,qAC,T2MOSCOW:!4435.05N/04007.56E_000/000t046h99 Temp 23.8/7.7/7.9/8.9C Hum 99.0% (2026-05-03 20:41:10)
UB3APB-WY>APRS,TCPIP*,qAC,T2VENYOV:!4435.05N/04007.56E_000/000t046h99 Temp 23.8/7.6/7.9/8.8C Hum 99.0% (2026-05-03 20:46:16)
UB3APB-WY>APRS,TCPIP*,qAC,T2RUSSIA2:!4435.05N/04007.56E_000/000t046h99 Temp 23.8/7.6/7.8/8.9C Hum 99.0% (2026-05-03 20:51:22)
UB3APB-WY>APRS,TCPIP*,qAC,T2VENYOV:!4435.05N/04007.56E_000/000t046h99 Temp 23.8/7.6/7.8/8.8C Hum 99.0% (2026-05-03 20:56:28)
UB3APB-WY>APRS,TCPIP*,qAC,T2MOSCOW:!4435.05N/04007.56E_000/000t046h99 Temp 23.8/7.5/7.8/8.8C Hum 99.0% (2026-05-03 21:06:39)
UB3APB-WY>APRS,TCPIP*,qAC,T2TROITSK:!4435.05N/04007.56E_000/000t046h99 Temp 23.8/7.5/7.9/8.8C Hum 99.0% (2026-05-03 21:11:45)
UB3APB-WY>APRS,TCPIP*,qAC,T2MOSCOW:!4435.05N/04007.56E_000/000t046h99 Temp 23.7/7.5/7.9/8.8C Hum 99.0% (2026-05-03 21:16:51)
UB3APB-WY>APRS,TCPIP*,qAC,T2TROITSK:!4435.05N/04007.56E_000/000t045h99 Temp 23.7/7.4/7.9/8.8C Hum 99.0% (2026-05-03 21:21:57)
UB3APB-WY>APRS,TCPIP*,qAC,T2MOSCOW:!4435.05N/04007.56E_000/000t046h99 Temp 23.8/7.5/7.8/8.8C Hum 99.0% (2026-05-03 21:27:03)
UB3APB-WY>APRS,TCPIP*,qAC,T2RUSSIA2:!4435.05N/04007.56E_000/000t045h99 Temp 23.8/7.4/7.8/8.8C Hum 99.0% (2026-05-03 21:32:09)
UB3APB-WY>APRS,TCPIP*,qAC,T2MOSCOW:!4435.05N/04007.56E_000/000t046h99 Temp 23.9/7.5/7.8/8.8C Hum 99.0% (2026-05-03 21:37:15)
UB3APB-WY>APRS,TCPIP*,qAC,T2ADG:!4435.05N/04007.56E_000/000t046h99 Temp 23.7/7.5/7.8/8.8C Hum 99.0% (2026-05-03 21:42:21)
UB3APB-WY>APRS,TCPIP*,qAC,T2VENYOV:!4435.05N/04007.56E_000/000t046h99 Temp 23.8/7.5/7.8/8.8C Hum 99.0% (2026-05-03 21:47:27)
UB3APB-WY>APRS,TCPIP*,qAC,T2TROITSK:!4435.05N/04007.56E_000/000t046h99 Temp 23.8/7.5/7.8/8.8C Hum 99.0% (2026-05-03 21:52:33)
UB3APB-WY>APRS,TCPIP*,qAC,T2VENYOV:!4435.05N/04007.56E_000/000t046h99 Temp 23.9/7.5/7.8/8.8C Hum 99.0% (2026-05-03 21:57:39)
UB3APB-WY>APRS,TCPIP*,qAC,T2MOSCOW:!4435.05N/04007.56E_000/000t046h99 Temp 23.7/7.5/7.8/8.8C Hum 99.0% (2026-05-03 22:02:45)
UB3APB-WY>APRS,TCPIP*,qAC,T2RUSSIA2:!4435.05N/04007.56E_000/000t046h99 Temp 23.8/7.6/7.8/8.8C Hum 99.0% (2026-05-03 22:07:51)
UB3APB-WY>APRS,TCPIP*,qAC,T2VENYOV:!4435.05N/04007.56E_000/000t046h99 Temp 23.9/7.6/7.9/8.8C Hum 99.0% (2026-05-03 22:12:57)
UB3APB-WY>APRS,TCPIP*,qAC,T2ADG:!4435.05N/04007.56E_000/000t046h99 Temp 23.8/7.6/7.9/8.8C Hum 99.0% (2026-05-03 22:18:03)
UB3APB-WY>APRS,TCPIP*,qAC,T2TROITSK:!4435.05N/04007.56E_000/000t046h99 Temp 23.7/7.7/7.9/8.8C Hum 99.0% (2026-05-03 22:23:09)
UB3APB-WY>APRS,TCPIP*,qAC,T2ADG:!4435.05N/04007.56E_000/000t046h99 Temp 23.8/7.7/7.8/8.8C Hum 99.0% (2026-05-03 22:28:15)
UB3APB-WY>APRS,TCPIP*,qAC,T2MOSCOW:!4435.05N/04007.56E_000/000t046h99 Temp 23.8/7.6/7.9/8.8C Hum 99.0% (2026-05-03 22:33:21)
UB3APB-WY>APRS,TCPIP*,qAC,T2ADG:!4435.05N/04007.56E_000/000t046h99 Temp 23.8/7.7/7.9/8.8C Hum 99.0% (2026-05-03 22:38:27)
UB3APB-WY>APRS,TCPIP*,qAC,T2VENYOV:!4435.05N/04007.56E_000/000t046h99 Temp 23.9/7.7/7.9/8.8C Hum 99.0% (2026-05-03 22:43:33)
UB3APB-WY>APRS,TCPIP*,qAC,T2TROITSK:!4435.05N/04007.56E_000/000t046h99 Temp 23.8/7.7/7.9/8.8C Hum 99.0% (2026-05-03 22:48:39)
UB3APB-WY>APRS,TCPIP*,qAC,T2MOSCOW:!4435.05N/04007.56E_000/000t046h99 Temp 23.8/7.7/7.9/8.8C Hum 99.0% (2026-05-03 22:53:45)
UB3APB-WY>APRS,TCPIP*,qAC,T2ADG:!4435.05N/04007.56E_000/000t046h99 Temp 23.8/7.7/7.9/8.8C Hum 99.0% (2026-05-03 22:58:51)
UB3APB-WY>APRS,TCPIP*,qAC,T2MOSCOW:!4435.05N/04007.56E_000/000t046h98 Temp 23.8/7.7/7.9/8.8C Hum 98.0% (2026-05-03 23:03:56)
UB3APB-WY>APRS,TCPIP*,qAC,T2VENYOV:!4435.05N/04007.56E_000/000t046h98 Temp 23.8/7.8/7.9/8.8C Hum 98.0% (2026-05-03 23:09:02)
UB3APB-WY>APRS,TCPIP*,qAC,T2TROITSK:!4435.05N/04007.56E_000/000t046h98 Temp 23.9/7.8/7.9/8.8C Hum 98.0% (2026-05-03 23:14:08)
UB3APB-WY>APRS,TCPIP*,qAC,T2TROITSK:!4435.05N/04007.56E_000/000t046h98 Temp 23.8/7.7/7.9/8.8C Hum 98.0% (2026-05-03 23:19:14)
UB3APB-WY>APRS,TCPIP*,qAC,T2ADG:!4435.05N/04007.56E_000/000t046h97 Temp 23.8/7.7/7.9/8.7C Hum 97.0% (2026-05-03 23:24:20)
UB3APB-WY>APRS,TCPIP*,qAC,T2MOSCOW:!4435.05N/04007.56E_000/000t046h98 Temp 23.7/7.7/7.8/8.8C Hum 98.0% (2026-05-03 23:29:27)
UB3APB-WY>APRS,TCPIP*,qAC,T2ADG:!4435.05N/04007.56E_000/000t046h97 Temp 23.7/7.7/7.7/8.7C Hum 97.0% (2026-05-03 23:34:33)
UB3APB-WY>APRS,TCPIP*,qAC,T2MOSCOW:!4435.05N/04007.56E_000/000t046h98 Temp 23.8/7.6/7.7/8.7C Hum 98.0% (2026-05-03 23:39:38)
UB3APB-WY>APRS,TCPIP*,qAC,T2ADG:!4435.05N/04007.56E_000/000t046h97 Temp 23.7/7.7/7.8/8.7C Hum 97.0% (2026-05-03 23:44:44)
UB3APB-WY>APRS,TCPIP*,qAC,T2TROITSK:!4435.05N/04007.56E_000/000t046h97 Temp 23.7/7.7/7.7/8.7C Hum 97.0% (2026-05-03 23:49:50)
UB3APB-WY>APRS,TCPIP*,qAC,T2TROITSK:!4435.05N/04007.56E_000/000t046h97 Temp 23.7/7.8/7.8/8.8C Hum 97.0% (2026-05-03 23:54:56)
UB3APB-WY>APRS,TCPIP*,qAC,T2ADG:!4435.05N/04007.56E_000/000t046h97 Temp 23.7/7.7/7.8/8.7C Hum 97.0% (2026-05-04 00:00:02)
UB3APB-WY>APRS,TCPIP*,qAC,T2MOSCOW:!4435.05N/04007.56E_000/000t046h97 Temp 23.8/7.7/7.8/8.8C Hum 97.0% (2026-05-04 00:05:07)
UB3APB-WY>APRS,TCPIP*,qAC,T2ADG:!4435.05N/04007.56E_000/000t046h96 Temp 23.7/7.7/7.7/8.7C Hum 96.0% (2026-05-04 00:10:13)
UB3APB-WY>APRS,TCPIP*,qAC,T2RUSSIA2:!4435.05N/04007.56E_000/000t046h96 Temp 23.7/7.7/7.8/8.7C Hum 96.0% (2026-05-04 00:15:19)
UB3APB-WY>APRS,TCPIP*,qAC,T2VENYOV:!4435.05N/04007.56E_000/000t046h96 Temp 23.7/7.8/7.8/8.8C Hum 96.0% (2026-05-04 00:20:25)
UB3APB-WY>APRS,TCPIP*,qAC,T2ADG:!4435.05N/04007.56E_000/000t046h96 Temp 23.8/7.8/7.8/8.7C Hum 96.0% (2026-05-04 00:25:31)
UB3APB-WY>APRS,TCPIP*,qAC,T2ADG:!4435.05N/04007.56E_000/000t046h96 Temp 23.7/7.8/7.9/8.7C Hum 96.0% (2026-05-04 00:30:37)
UB3APB-WY>APRS,TCPIP*,qAC,T2MOSCOW:!4435.05N/04007.56E_000/000t046h96 Temp 23.7/7.8/7.8/8.7C Hum 96.0% (2026-05-04 00:35:42)
UB3APB-WY>APRS,TCPIP*,qAC,T2VENYOV:!4435.05N/04007.56E_000/000t046h96 Temp 23.7/7.8/7.8/8.7C Hum 96.0% (2026-05-04 00:40:48)
UB3APB-WY>APRS,TCPIP*,qAC,T2MOSCOW:!4435.05N/04007.56E_000/000t046h96 Temp 23.8/7.8/7.8/8.7C Hum 96.0% (2026-05-04 00:45:54)
UB3APB-WY>APRS,TCPIP*,qAC,T2MOSCOW:!4435.05N/04007.56E_000/000t046h95 Temp 23.8/7.9/7.9/8.7C Hum 95.0% (2026-05-04 00:51:00)
UB3APB-WY>APRS,TCPIP*,qAC,T2TROITSK:!4435.05N/04007.56E_000/000t046h95 Temp 23.8/7.8/7.8/8.7C Hum 95.0% (2026-05-04 00:56:07)
UB3APB-WY>APRS,TCPIP*,qAC,T2VENYOV:!4435.05N/04007.56E_000/000t046h95 Temp 23.7/7.8/7.8/8.7C Hum 95.0% (2026-05-04 01:01:12)
UB3APB-WY>APRS,TCPIP*,qAC,T2RUSSIA2:!4435.05N/04007.56E_000/000t046h95 Temp 23.7/7.8/7.7/8.7C Hum 95.0% (2026-05-04 01:06:18)
UB3APB-WY>APRS,TCPIP*,qAC,T2RUSSIA2:!4435.05N/04007.56E_000/000t046h95 Temp 23.8/7.8/7.9/8.7C Hum 95.0% (2026-05-04 01:11:24)
UB3APB-WY>APRS,TCPIP*,qAC,T2MOSCOW:!4435.05N/04007.56E_000/000t046h95 Temp 23.8/7.8/7.8/8.7C Hum 95.0% (2026-05-04 01:16:30)
UB3APB-WY>APRS,TCPIP*,qAC,T2ADG:!4435.05N/04007.56E_000/000t046h95 Temp 23.7/7.8/7.7/8.7C Hum 95.0% (2026-05-04 01:21:36)
UB3APB-WY>APRS,TCPIP*,qAC,T2RUSSIA2:!4435.05N/04007.56E_000/000t046h96 Temp 23.8/7.6/7.6/8.7C Hum 96.0% (2026-05-04 01:26:41)
UB3APB-WY>APRS,TCPIP*,qAC,T2ADG:!4435.05N/04007.56E_000/000t046h95 Temp 23.7/7.6/7.7/8.7C Hum 95.0% (2026-05-04 01:32:17)
UB3APB-WY>APRS,TCPIP*,qAC,T2RUSSIA2:!4435.05N/04007.56E_000/000t046h96 Temp 23.8/7.5/7.6/8.7C Hum 96.0% (2026-05-04 01:37:23)
UB3APB-WY>APRS,TCPIP*,qAC,T2RUSSIA2:!4435.05N/04007.56E_000/000t046h95 Temp 23.8/7.6/7.6/8.7C Hum 95.0% (2026-05-04 01:42:59)
UB3APB-WY>APRS,TCPIP*,qAC,T2VENYOV:!4435.05N/04007.56E_000/000t046h95 Temp 23.7/7.6/7.6/8.7C Hum 95.0% (2026-05-04 01:48:05)
UB3APB-WY>APRS,TCPIP*,qAC,T2MOSCOW:!4435.05N/04007.56E_000/000t046h94 Temp 23.7/7.7/7.7/8.7C Hum 94.0% (2026-05-04 01:53:11)
UB3APB-WY>APRS,TCPIP*,qAC,T2VENYOV:!4435.05N/04007.56E_000/000t046h95 Temp 23.8/7.6/7.6/8.6C Hum 95.0% (2026-05-04 01:58:17)
UB3APB-WY>APRS,TCPIP*,qAC,T2MOSCOW:!4435.05N/04007.56E_000/000t046h93 Temp 23.8/7.8/7.8/8.7C Hum 93.0% (2026-05-04 02:03:23)
UB3APB-WY>APRS,TCPIP*,qAC,T2RUSSIA2:!4435.05N/04007.56E_000/000t046h95 Temp 23.7/7.6/7.7/8.6C Hum 95.0% (2026-05-04 02:08:29)
UB3APB-WY>APRS,TCPIP*,qAC,T2VENYOV:!4435.05N/04007.56E_000/000t046h94 Temp 23.7/7.8/7.8/8.6C Hum 94.0% (2026-05-04 02:13:35)
UB3APB-WY>APRS,TCPIP*,qAC,T2TROITSK:!4435.05N/04007.56E_000/000t046h94 Temp 23.7/7.8/7.7/8.6C Hum 94.0% (2026-05-04 02:18:41)
UB3APB-WY>APRS,TCPIP*,qAC,T2ADG:!4435.05N/04007.56E_000/000t046h94 Temp 23.8/7.6/7.7/8.7C Hum 94.0% (2026-05-04 02:23:47)
UB3APB-WY>APRS,TCPIP*,qAC,T2ADG:!4435.05N/04007.56E_000/000t046h95 Temp 23.7/7.6/7.6/8.6C Hum 95.0% (2026-05-04 02:28:53)
UB3APB-WY>APRS,TCPIP*,qAC,T2RUSSIA2:!4435.05N/04007.56E_000/000t046h94 Temp 23.8/7.6/7.7/8.6C Hum 94.0% (2026-05-04 02:33:59)
UB3APB-WY>APRS,TCPIP*,qAC,T2VENYOV:!4435.05N/04007.56E_000/000t046h94 Temp 23.8/7.7/7.7/8.6C Hum 94.0% (2026-05-04 02:39:04)
UB3APB-WY>APRS,TCPIP*,qAC,T2RUSSIA2:!4435.05N/04007.56E_000/000t046h94 Temp 23.7/7.7/7.7/8.6C Hum 94.0% (2026-05-04 02:44:10)
UB3APB-WY>APRS,TCPIP*,qAC,T2VENYOV:!4435.05N/04007.56E_000/000t046h94 Temp 23.7/7.6/7.6/8.6C Hum 94.0% (2026-05-04 02:49:16)
UB3APB-WY>APRS,TCPIP*,qAC,T2MOSCOW:!4435.05N/04007.56E_000/000t046h94 Temp 23.7/7.6/7.5/8.6C Hum 94.0% (2026-05-04 02:54:22)
UB3APB-WY>APRS,TCPIP*,qAC,T2VENYOV:!4435.05N/04007.56E_000/000t046h94 Temp 23.7/7.5/7.6/8.6C Hum 94.0% (2026-05-04 02:59:28)
UB3APB-WY>APRS,TCPIP*,qAC,T2ADG:!4435.05N/04007.56E_000/000t046h94 Temp 23.8/7.6/7.6/8.6C Hum 94.0% (2026-05-04 03:04:34)
UB3APB-WY>APRS,TCPIP*,qAC,T2RUSSIA2:!4435.05N/04007.56E_000/000t046h94 Temp 23.7/7.7/7.6/8.6C Hum 94.0% (2026-05-04 03:09:39)
UB3APB-WY>APRS,TCPIP*,qAC,T2VENYOV:!4435.05N/04007.56E_000/000t046h94 Temp 23.7/7.7/7.7/8.6C Hum 94.0% (2026-05-04 03:14:45)
UB3APB-WY>APRS,TCPIP*,qAC,T2RUSSIA2:!4435.05N/04007.56E_000/000t046h94 Temp 23.9/7.7/7.7/8.6C Hum 94.0% (2026-05-04 03:19:51)
UB3APB-WY>APRS,TCPIP*,qAC,T2RUSSIA2:!4435.05N/04007.56E_000/000t046h93 Temp 23.8/7.7/7.7/8.6C Hum 93.0% (2026-05-04 03:24:57)
UB3APB-WY>APRS,TCPIP*,qAC,T2RUSSIA2:!4435.05N/04007.56E_000/000t046h94 Temp 23.8/7.7/7.7/8.6C Hum 94.0% (2026-05-04 03:30:03)
UB3APB-WY>APRS,TCPIP*,qAC,T2TROITSK:!4435.05N/04007.56E_000/000t046h94 Temp 23.7/7.7/7.7/8.6C Hum 94.0% (2026-05-04 03:35:10)
UB3APB-WY>APRS,TCPIP*,qAC,T2TROITSK:!4435.05N/04007.56E_000/000t046h94 Temp 23.7/7.7/7.6/8.6C Hum 94.0% (2026-05-04 03:40:16)
UB3APB-WY>APRS,TCPIP*,qAC,T2VENYOV:!4435.05N/04007.56E_000/000t046h94 Temp 23.8/7.7/7.7/8.6C Hum 94.0% (2026-05-04 03:45:21)
UB3APB-WY>APRS,TCPIP*,qAC,T2RUSSIA2:!4435.05N/04007.56E_000/000t046h93 Temp 23.7/7.8/7.8/8.6C Hum 93.0% (2026-05-04 03:50:27)
UB3APB-WY>APRS,TCPIP*,qAC,T2MOSCOW:!4435.05N/04007.56E_000/000t046h94 Temp 23.8/7.8/7.8/8.6C Hum 94.0% (2026-05-04 03:55:34)
UB3APB-WY>APRS,TCPIP*,qAC,T2ADG:!4435.05N/04007.56E_000/000t046h94 Temp 23.7/7.8/7.8/8.6C Hum 94.0% (2026-05-04 04:00:40)
UB3APB-WY>APRS,TCPIP*,qAC,T2TROITSK:!4435.05N/04007.56E_000/000t046h94 Temp 23.7/7.9/7.8/8.6C Hum 94.0% (2026-05-04 04:05:45)
UB3APB-WY>APRS,TCPIP*,qAC,T2VENYOV:!4435.05N/04007.56E_000/000t046h94 Temp 23.7/7.9/7.8/8.6C Hum 94.0% (2026-05-04 04:10:51)
UB3APB-WY>APRS,TCPIP*,qAC,T2ADG:!4435.05N/04007.56E_000/000t046h94 Temp 23.7/7.9/7.9/8.6C Hum 94.0% (2026-05-04 04:15:58)
UB3APB-WY>APRS,TCPIP*,qAC,T2TROITSK:!4435.05N/04007.56E_000/000t046h94 Temp 23.7/8.0/7.9/8.6C Hum 94.0% (2026-05-04 04:21:03)
UB3APB-WY>APRS,TCPIP*,qAC,T2ADG:!4435.05N/04007.56E_000/000t046h94 Temp 23.8/8.0/8.0/8.6C Hum 94.0% (2026-05-04 04:26:10)
UB3APB-WY>APRS,TCPIP*,qAC,T2MOSCOW:!4435.05N/04007.56E_000/000t046h94 Temp 23.8/8.0/8.0/8.6C Hum 94.0% (2026-05-04 04:31:15)
UB3APB-WY>APRS,TCPIP*,qAC,T2VENYOV:!4435.05N/04007.56E_000/000t047h94 Temp 23.7/8.1/8.0/8.6C Hum 94.0% (2026-05-04 04:36:21)
UB3APB-WY>APRS,TCPIP*,qAC,T2RUSSIA2:!4435.05N/04007.56E_000/000t047h93 Temp 23.7/8.1/8.0/8.6C Hum 93.0% (2026-05-04 04:41:27)
UB3APB-WY>APRS,TCPIP*,qAC,T2TROITSK:!4435.05N/04007.56E_000/000t047h93 Temp 23.7/8.1/8.0/8.6C Hum 93.0% (2026-05-04 04:46:33)
UB3APB-WY>APRS,TCPIP*,qAC,T2MOSCOW:!4435.05N/04007.56E_000/000t047h93 Temp 23.7/8.2/8.1/8.6C Hum 93.0% (2026-05-04 04:51:39)
UB3APB-WY>APRS,TCPIP*,qAC,T2TROITSK:!4435.05N/04007.56E_000/000t047h93 Temp 23.7/8.2/8.1/8.6C Hum 93.0% (2026-05-04 04:56:45)
UB3APB-WY>APRS,TCPIP*,qAC,T2MOSCOW:!4435.05N/04007.56E_000/000t047h93 Temp 23.8/8.2/8.1/8.6C Hum 93.0% (2026-05-04 05:01:51)
UB3APB-WY>APRS,TCPIP*,qAC,T2RUSSIA2:!4435.05N/04007.56E_000/000t047h93 Temp 23.8/8.2/8.1/8.6C Hum 93.0% (2026-05-04 05:06:57)
UB3APB-WY>APRS,TCPIP*,qAC,T2VENYOV:!4435.05N/04007.56E_000/000t047h94 Temp 23.7/8.2/8.0/8.6C Hum 94.0% (2026-05-04 05:12:03)
UB3APB-WY>APRS,TCPIP*,qAC,T2RUSSIA2:!4435.05N/04007.56E_000/000t047h93 Temp 23.7/8.3/8.2/8.6C Hum 93.0% (2026-05-04 05:17:09)
UB3APB-WY>APRS,TCPIP*,qAC,T2VENYOV:!4435.05N/04007.56E_000/000t047h93 Temp 23.6/8.3/8.1/8.6C Hum 93.0% (2026-05-04 05:22:15)
UB3APB-WY>APRS,TCPIP*,qAC,T2RUSSIA2:!4435.05N/04007.56E_000/000t047h93 Temp 23.7/8.3/8.2/8.6C Hum 93.0% (2026-05-04 05:27:20)
UB3APB-WY>APRS,TCPIP*,qAC,T2VENYOV:!4435.05N/04007.56E_000/000t047h92 Temp 23.7/8.4/8.3/8.6C Hum 92.0% (2026-05-04 05:32:26)
UB3APB-WY>APRS,TCPIP*,qAC,T2VENYOV:!4435.05N/04007.56E_000/000t047h93 Temp 23.7/8.3/8.2/8.6C Hum 93.0% (2026-05-04 05:37:32)
UB3APB-WY>APRS,TCPIP*,qAC,T2RUSSIA2:!4435.05N/04007.56E_000/000t047h93 Temp 23.8/8.3/8.3/8.6C Hum 93.0% (2026-05-04 05:42:38)
UB3APB-WY>APRS,TCPIP*,qAC,T2RUSSIA2:!4435.05N/04007.56E_000/000t047h94 Temp 23.7/8.3/8.2/8.6C Hum 94.0% (2026-05-04 05:47:44)
UB3APB-WY>APRS,TCPIP*,qAC,T2MOSCOW:!4435.05N/04007.56E_000/000t047h95 Temp 23.7/8.2/8.2/8.6C Hum 95.0% (2026-05-04 05:52:50)
UB3APB-WY>APRS,TCPIP*,qAC,T2ADG:!4435.05N/04007.56E_000/000t047h95 Temp 23.7/8.2/8.2/8.6C Hum 95.0% (2026-05-04 05:57:56)
UB3APB-WY>APRS,TCPIP*,qAC,T2MOSCOW:!4435.05N/04007.56E_000/000t047h95 Temp 23.8/8.2/8.2/8.6C Hum 95.0% (2026-05-04 06:03:01)
UB3APB-WY>APRS,TCPIP*,qAC,T2VENYOV:!4435.05N/04007.56E_000/000t047h95 Temp 23.8/8.3/8.2/8.6C Hum 95.0% (2026-05-04 06:08:07)
UB3APB-WY>APRS,TCPIP*,qAC,T2MOSCOW:!4435.05N/04007.56E_000/000t047h95 Temp 23.7/8.3/8.2/8.6C Hum 95.0% (2026-05-04 06:13:13)
UB3APB-WY>APRS,TCPIP*,qAC,T2TROITSK:!4435.05N/04007.56E_000/000t047h94 Temp 23.9/8.4/8.2/8.6C Hum 94.0% (2026-05-04 06:18:19)
UB3APB-WY>APRS,TCPIP*,qAC,T2ADG:!4435.05N/04007.56E_000/000t047h94 Temp 23.7/8.4/8.3/8.6C Hum 94.0% (2026-05-04 06:23:25)
UB3APB-WY>APRS,TCPIP*,qAC,T2VENYOV:!4435.05N/04007.56E_000/000t047h94 Temp 23.7/8.4/8.3/8.6C Hum 94.0% (2026-05-04 06:28:32)
UB3APB-WY>APRS,TCPIP*,qAC,T2RUSSIA2:!4435.05N/04007.56E_000/000t047h95 Temp 23.7/8.4/8.3/8.6C Hum 95.0% (2026-05-04 06:33:37)
UB3APB-WY>APRS,TCPIP*,qAC,T2TROITSK:!4435.05N/04007.56E_000/000t047h95 Temp 23.8/8.4/8.3/8.6C Hum 95.0% (2026-05-04 06:38:43)
UB3APB-WY>APRS,TCPIP*,qAC,T2TROITSK:!4435.05N/04007.56E_000/000t047h95 Temp 23.7/8.4/8.3/8.6C Hum 95.0% (2026-05-04 06:43:50)
UB3APB-WY>APRS,TCPIP*,qAC,T2TROITSK:!4435.05N/04007.56E_000/000t047h95 Temp 23.8/8.4/8.3/8.6C Hum 95.0% (2026-05-04 06:48:56)
UB3APB-WY>APRS,TCPIP*,qAC,T2TROITSK:!4435.05N/04007.56E_000/000t047h95 Temp 23.7/8.5/8.4/8.6C Hum 95.0% (2026-05-04 06:54:02)
UB3APB-WY>APRS,TCPIP*,qAC,T2MOSCOW:!4435.05N/04007.56E_000/000t047h95 Temp 23.8/8.5/8.4/8.6C Hum 95.0% (2026-05-04 06:59:07)
UB3APB-WY>APRS,TCPIP*,qAC,T2VENYOV:!4435.05N/04007.56E_000/000t047h96 Temp 23.7/8.5/8.5/8.6C Hum 96.0% (2026-05-04 07:04:14)
UB3APB-WY>APRS,TCPIP*,qAC,T2ADG:!4435.05N/04007.56E_000/000t047h95 Temp 23.7/8.6/8.5/8.6C Hum 95.0% (2026-05-04 07:09:20)
UB3APB-WY>APRS,TCPIP*,qAC,T2MOSCOW:!4435.05N/04007.56E_000/000t047h94 Temp 23.7/8.6/8.5/8.6C Hum 94.0% (2026-05-04 07:14:25)
UB3APB-WY>APRS,TCPIP*,qAC,T2ADG:!4435.05N/04007.56E_000/000t047h94 Temp 23.8/8.6/8.6/8.6C Hum 94.0% (2026-05-04 07:19:31)
UB3APB-WY>APRS,TCPIP*,qAC,T2VENYOV:!4435.05N/04007.56E_000/000t048h94 Temp 23.8/8.7/8.6/8.6C Hum 94.0% (2026-05-04 07:24:36)
UB3APB-WY>APRS,TCPIP*,qAC,T2TROITSK:!4435.05N/04007.56E_000/000t048h95 Temp 23.7/8.7/8.6/8.6C Hum 95.0% (2026-05-04 07:29:42)
UB3APB-WY>APRS,TCPIP*,qAC,T2RUSSIA2:!4435.05N/04007.56E_000/000t048h94 Temp 23.8/8.7/8.7/8.6C Hum 94.0% (2026-05-04 07:34:48)
UB3APB-WY>APRS,TCPIP*,qAC,T2MOSCOW:!4435.05N/04007.56E_000/000t047h95 Temp 23.8/8.6/8.7/8.6C Hum 95.0% (2026-05-04 07:39:54)
UB3APB-WY>APRS,TCPIP*,qAC,T2VENYOV:!4435.05N/04007.56E_000/000t047h96 Temp 23.9/8.5/8.7/8.6C Hum 96.0% (2026-05-04 07:45:00)
UB3APB-WY>APRS,TCPIP*,qAC,T2ADG:!4435.05N/04007.56E_000/000t047h97 Temp 23.8/8.5/8.7/8.6C Hum 97.0% (2026-05-04 07:50:06)
UB3APB-WY>APRS,TCPIP*,qAC,T2MOSCOW:!4435.05N/04007.56E_000/000t047h96 Temp 23.9/8.6/8.8/8.6C Hum 96.0% (2026-05-04 07:55:12)
UB3APB-WY>APRS,TCPIP*,qAC,T2TROITSK:!4435.05N/04007.56E_000/000t047h96 Temp 23.7/8.6/8.8/8.7C Hum 96.0% (2026-05-04 08:00:18)
UB3APB-WY>APRS,TCPIP*,qAC,T2VENYOV:!4435.05N/04007.56E_000/000t048h96 Temp 23.8/8.7/8.8/8.6C Hum 96.0% (2026-05-04 08:05:23)
UB3APB-WY>APRS,TCPIP*,qAC,T2TROITSK:!4435.05N/04007.56E_000/000t049h98 Temp 24.1/9.5/9.8/8.8C Hum 98.0% (2026-05-04 10:02:35)